Regional Weather Roundup
Issued by NWS

Home | Current Version | Previous Version | Graphics & Text | Print | Product List | Glossary On
Versions: 1 2 3 4 5 6 7 8 9 10 11 12 13 14 15 16 17 18 19 20 21 22 23 24 25 26 27 28 29 30 31 32 33 34 35 36 37 38 39 40 41 42 43 44 45 46 47 48 49 50
000
ASUS43 KTOP 241059
RWRKS

WEATHER ROUNDUP FOR KANSAS
NATIONAL WEATHER SERVICE GOODLAND KS
600 AM CDT WED AUG 24 2016

NOTE:  "FAIR" INDICATES FEW OR NO CLOUDS BELOW 12,000 FEET WITH NO
SIGNIFICANT WEATHER AND/OR OBSTRUCTIONS TO VISIBILITY.

KSZ001>006-013>018-027>032-041>047-241200-
NORTHWEST KANSAS

CITY           SKY/WX    TMP DP  RH WIND       PRES   REMARKS
GOODLAND       CLOUDY    65  46  50 NE16      30.02F
HAYS           CLOUDY    68  54  60 NW5       29.94R
HILL CITY      CLOUDY    67  55  65 N8        29.98R
RUSSELL        PTCLDY    68  64  87 SW7       29.91S
$$

KSZ061>065-074>080-084>089-241200-
SOUTHWEST KANSAS

CITY           SKY/WX    TMP DP  RH WIND       PRES   REMARKS
DODGE CITY     MOCLDY    72  61  68 W3        29.97R
ELKHART          N/A     66  49  54 S5          N/A
GARDEN CITY    CLOUDY    69  62  78 E5        29.97R
GREAT BEND     CLOUDY    72  61  68 SW7       29.94S
LIBERAL        CLOUDY    70  61  73 SW25      30.00R
$$

KSZ066>073-081>083-090>101-241200-
SOUTHEAST KANSAS

CITY           SKY/WX    TMP DP  RH WIND       PRES   REMARKS
CHANUTE        CLOUDY    77  70  79 S14       29.98S
COFFEYVILLE    MOCLDY    78  70  76 S9        30.00R
HUTCHINSON     CLOUDY    72  66  81 CALM      29.96R
NEWTON         CLOUDY    77  67  71 S12       29.96R
PARSONS        CLOUDY    77  70  79 S8        30.01R
WICHITA INTL   CLOUDY    76  68  76 S12       29.94R
WICHITA JABRA  CLOUDY    75  68  78 S8        29.95R
WINFIELD       CLOUDY    78  68  71 S13       29.97S
$$

KSZ007>012-019>026-033>040-048>060-102>105-241200-
NORTHEAST KANSAS

CITY           SKY/WX    TMP DP  RH WIND       PRES   REMARKS
CONCORDIA      CLOUDY    70  67  90 NE8       29.90R
EMPORIA        PTCLDY    73  70  90 S12       29.94S
LAWRENCE       LGT RAIN  68  66  93 SE7       29.98F
MANHATTAN      CLOUDY    70  66  87 E5        29.94F
OLATHE IND     CLOUDY    70  67  90 NE7       30.01S
OLATHE EXE     CLOUDY    68  66  93 NE10      30.01R
SALINA         CLOUDY    73  64  73 SE7       29.90F
TOPEKA BILLARD MOCLDY    69  65  86 E8        29.96F
TOPEKA FORBES  MOCLDY    71  66  84 E9        29.97F
$$




USA.gov is the U.S. government's official web portal to all federal, state and local government web resources and services.